Regional Weather Roundup
Issued by NWS

Home | Current Version | Previous Version | Text Only | Print | Product List | Glossary Off
Versions: 1 2 3 4 5 6 7 8 9 10 11 12 13 14 15 16 17 18 19 20 21 22 23 24 25 26 27 28 29 30 31 32 33 34 35 36 37 38 39 40 41 42 43 44 45 46 47 48 49 50

000
ASUS43 KMPX 030701
RWRMN
WEATHER ROUNDUP FOR MINNESOTA
NATIONAL WEATHER SERVICE TWIN CITIES/CHANHASSEN MN
200 AM CDT FRI JUL 03 2015


NOTE: "FAIR" INDICATES FEW OR NO CLOUDS BELOW 12,000 FEET WITH NO
SIGNIFICANT WEATHER AND/OR OBSTRUCTIONS TO VISIBILITY. N/A MEANS
CURRENT SKY AND/OR WEATHER CONDITIONS ARE NOT AVAILABLE.

MNZ060>063-068>070-030800-
   Twin Cities Metro

CITY           SKY/WX    TMP DP  RH WIND       PRES   REMARKS
TWIN CITIES    CLEAR     65  56  72 S3        29.98S
ST PAUL        CLEAR     62  58  86 E3        29.98S
CRYSTAL        CLEAR     60  55  83 CALM      29.96F
BLAINE         CLEAR     61  57  88 CALM      29.97F
LAKEVILLE      CLEAR     55  54  94 CALM      29.99S
EDEN PRAIRIE   CLEAR     62  58  86 S3        29.97F
SOUTH ST PAUL  CLEAR     62  56  79 CALM      29.97F
LAKE ELMO      FAIR      59  55  88 CALM      29.99S
$$
MNZ001>005-007-008-013>017-022>024-027-028-030800-
   Northwest Minnesota

CITY           SKY/WX    TMP DP  RH WIND       PRES   REMARKS
BEMIDJI        CLEAR     62  53  73 SW6       29.92S
HALLOCK        FOG       63  63 100 NW6       29.88S VSB 3/4
ROSEAU         PTCLDY    64  59  82 SW5       29.87F
WARROAD        PTCLDY    63  59  88 SW6       29.88S
THIEF RVR FALL MOCLDY    64  55  72 SW8       29.90S
CROOKSTON      CLEAR     63  59  88 S3        29.90F
FOSSTON        CLEAR     59  54  82 S6        29.92F
DETROIT LAKES  CLEAR     64  54  68 SW6       29.95F
MOORHEAD       CLEAR     63  57  82 S6        29.94S
PARK RAPIDS    MOCLDY    60  53  77 SW7       29.94F
MAHNOMEN       PTSUNNY   60  55  83 SW6       29.93F
$$
MNZ006-009>011-018-025>026-030800-
   North Central Minnesota

CITY           SKY/WX    TMP DP  RH WIND       PRES   REMARKS
BAUDETTE       CLOUDY    66  56  70 W8        29.86F
FLAG ISLAND    MOCLDY    66  64  94 W7        29.84S
INTL FALLS     CLOUDY    65  56  72 W6        29.86S
WASKISH        PTCLDY    68  59  73 SW13G18   29.89F
BIG FORK       CLEAR     64  55  72 SW6       29.91S
LONGVILLE      CLEAR     64  54  68 SW6       29.94F
GRAND RAPIDS   MOCLDY    66  52  59 SW6       29.93F
CRANE LAKE     CLOUDY    63  59  88 S2        29.88F
ORR            MOCLDY    64  55  72 CALM      29.87S
COOK           MOCLDY    66  57  72 SW5       29.90F
WALKER         FAIR      61  52  71 SW5       29.93F
$$
MNZ012-019>021-037-030800-
   Northeast Minnesota

CITY           SKY/WX    TMP DP  RH WIND       PRES   REMARKS
DULUTH         PTCLDY    63  55  75 W8        29.94S
ELY            MOCLDY    64  55  72 SW5       29.89F
HIBBING        CLOUDY    62  56  80 CALM      29.92F
DULUTH HARBOR  CLEAR     64  57  77 SW9       29.93R
TWO HARBORS    CLEAR     66  57  72 W5        29.90F
SILVER BAY     PTCLDY    63  57  82 CALM      29.89F
GRAND MARAIS     N/A     51  50  96 SW8       29.86F
G MARAIS ARPRT PTCLDY    61  54  77 SW6       29.90F
$$
MNZ029>031-032-039>041-046>048-054>057-064-030800-
   West Central Minnesota

CITY           SKY/WX    TMP DP  RH WIND       PRES   REMARKS
FERGUS FALLS   CLEAR     61  55  82 S6        29.96F
WHEATON        CLEAR     55  54  94 S6        29.98S
MORRIS         CLEAR     57  54  88 CALM      29.96F
ALEXANDRIA     CLEAR     58  51  78 SW7       29.99S
ELBOW LAKE     FAIR      58  55  88 S6        29.97S
WADENA         CLEAR     57  52  82 CALM      29.96F
GLENWOOD       CLEAR     55  52  88 CALM      29.98F
APPLETON       CLEAR     55  52  88 CALM      29.97S
BENSON         CLEAR     55  52  88 CALM      29.97F
ORTONVILLE     CLEAR     57  52  82 SW3       29.97S
MADISON        CLEAR     55  52  88 SW6       29.97F
WILLMAR        FAIR      57  54  88 CALM      29.99F
$$
MNZ033>034-036-042>043-049>051-058-059-030800-
   Central Minnesota

CITY           SKY/WX    TMP DP  RH WIND       PRES   REMARKS
ST CLOUD       CLEAR     56  54  93 CALM      29.97F
SAUK CENTRE    FAIR      53  52  94 CALM      29.98S
PAYNESVILLE    CLEAR     49  49  99 CALM      29.98F
AITKIN         PTCLDY    61  54  77 SW3       29.94S
PINE RIVER     CLEAR     54  52  94 CALM      29.98F
BRAINERD       CLEAR     54  53  97 CALM      29.96F
STAPLES        CLEAR     55  50  82 CALM      29.97S
LONG PRAIRIE   MOCLDY    54  52  94 CALM      29.98S
LITTLE FALLS   CLEAR     52  52 100 CALM      29.97S
LITCHFIELD     CLEAR     59  54  82 CALM      29.99S
BUFFALO        CLEAR     57  53  85 CALM      29.99S
MAPLE LAKE     CLEAR     56  55  94 CALM      29.99S
$$
MNZ037-044-045-052-053-030800-
   East Central Minnesota

CITY           SKY/WX    TMP DP  RH WIND       PRES   REMARKS
PRINCETON      CLEAR     57  55  94 CALM      29.97F
MORA           CLEAR     54  52  94 CALM      29.98S FOG
CAMBRIDGE      CLEAR     63  52  67 CALM      29.95S
RUSH CITY      MOCLDY    57  55  92 CALM      29.96S
MOOSE LAKE     CLOUDY    52  52 100 SW3       29.93S FOG
HINCKLEY       FAIR      54  54 100 CALM      29.96S
CLOQUET        CLEAR     61  54  77 W5        29.95S
MCGREGOR       MOCLDY    61  55  82 SW3       29.95S
$$
MNZ071>073-080-081-089-090-097-098-030800-
   Southwest Minnesota

CITY           SKY/WX    TMP DP  RH WIND       PRES   REMARKS
MONTEVIDEO     CLEAR     57  48  72 W7        29.98F
GRANITE FALLS  CLEAR     54  52  92 CALM      30.00F
CANBY          CLEAR     58  54  84 SW5       29.99F
MARSHALL       CLEAR     55  48  76 SW5       29.99F
REDWOOD FALLS  CLEAR     60  51  72 W6        29.99S
OLIVIA         CLEAR     54  50  87 CALM      29.98F
PIPESTONE      CLEAR     55  52  88 CALM      30.02S
WINDOM         CLEAR     54  52  94 CALM      30.02S
WORTHINGTON    CLEAR     54  48  82 S5        30.02F
JACKSON        CLEAR     54  52  94 SW5       30.03S
TRACY          CLEAR     57  52  82 SW6       30.01S
SLAYTON        CLEAR     54  50  87 CALM      30.03S
$$
MNZ065>067-074>077-082>085-091>093-030800-
   South Central Minnesota

CITY           SKY/WX    TMP DP  RH WIND       PRES   REMARKS
MANKATO        CLEAR     59  54  82 SW5       30.00S
NEW ULM        CLEAR     55  54  94 SW3       30.00S
ST JAMES       CLEAR     57  54  88 SW6       30.01F
FAIRMONT       CLEAR     55  48  76 CALM      30.01S
GLENCOE        CLEAR     55  53  95 CALM      29.98S
FARIBAULT      CLEAR     54  52  94 CALM      30.00S
OWATONNA       CLEAR     57  54  88 CALM      30.00S
WASECA         CLEAR     52  50  93 CALM      30.01S
ALBERT LEA     PTCLDY    57  55  94 CALM      30.01S FOG
$$
MNZ078>079-086>088-094>096-030800-
   Southeast Minnesota

CITY           SKY/WX    TMP DP  RH WIND       PRES   REMARKS
ROCHESTER      PTCLDY    56  54  93 S5        30.00F
RED WING       CLEAR     55  54  94 CALM      29.97F
DODGE CENTER   PTCLDY    57  54  88 S5        30.00F
WINONA         PTCLDY    55  55 100 CALM      30.00R
AUSTIN         PTCLDY    57  55  94 CALM      30.00F
PRESTON        PTCLDY    58  53  83 S5        30.01S
$$
ABBREVIATIONS USED IN REMARKS
   TC - TEMPERATURES IN CELSIUS
  WCI - WIND CHILL INDEX
   HX - HEAT INDEX
  VSB - VISIBILITY
$$


USA.gov is the U.S. government's official web portal to all federal, state and local government web resources and services.